Location: Newark
(50.6972°N, 6.6253°E)
Time: 18:10:22
(UTC+00:00)

N. Korean satellite - Visible Passes

Search period start: 21 November 2019 00:00
Search period end: 01 December 2019 00:00
Orbit: 456 x 506 km, 97.2° (Epoch: 21 November)

Date Brightness Start Highest point End Pass type
(mag) Time Alt. Az. Time Alt. Az. Time Alt. Az.
21 Nov 7.6 05:16:52 10° NNE 05:20:29 50° E 05:24:04 10° S visible
21 Nov 9.6 17:31:06 10° SW 17:33:49 19° W 17:36:34 10° NW visible
22 Nov 8.9 04:51:47 10° NE 04:54:59 26° E 04:58:07 10° SSE visible
22 Nov 8.5 17:04:51 10° SSW 17:08:15 35° W 17:11:42 10° NNW visible
23 Nov 9.9 04:27:11 10° NE 04:29:22 15° E 04:31:30 10° SE visible
23 Nov 6.7 05:59:28 10° N 06:03:05 53° WNW 06:06:39 10° SSW visible
23 Nov 7.0 16:39:06 10° S 16:42:46 68° WSW 16:46:30 10° NNW visible
24 Nov 6.7 05:34:00 10° NNE 05:37:43 80° ESE 05:41:22 10° S visible
24 Nov 6.6 16:13:44 10° SSE 16:17:23 62° ENE 16:21:05 10° N visible
24 Nov 10.1 17:49:23 10° WSW 17:51:11 13° W 17:52:59 10° WNW visible
25 Nov 8.0 05:08:44 10° NNE 05:12:15 40° E 05:15:42 10° S visible
25 Nov 9.3 17:22:32 10° SSW 17:25:32 23° W 17:28:35 10° NW visible
26 Nov 9.3 04:43:46 10° NE 04:46:42 22° E 04:49:34 10° SE visible
26 Nov 7.2 06:16:49 10° N 06:20:11 34° WNW 06:23:30 10° SW visible
26 Nov 8.0 16:56:27 10° S 16:59:59 43° W 17:03:35 10° NNW visible
27 Nov 10.1 04:19:31 10° ENE 04:21:02 12° E 04:22:32 10° ESE visible
27 Nov 6.5 05:51:13 10° N 05:54:52 65° WNW 05:58:27 10° SSW visible
27 Nov 6.7 16:30:50 10° SSE 16:34:32 84° WSW 16:38:17 10° NNW visible
28 Nov 7.0 05:25:48 10° NNE 05:29:28 64° E 05:33:02 10° S visible
28 Nov 9.9 17:40:31 10° SW 17:42:51 16° W 17:45:12 10° NW visible
29 Nov 8.5 05:00:37 10° NNE 05:03:57 33° E 05:07:14 10° SSE visible
29 Nov 8.9 17:14:00 10° SSW 17:17:14 28° W 17:20:30 10° NW visible
30 Nov 9.5 04:35:46 10° NE 04:38:21 18° E 04:40:53 10° SE visible
30 Nov 7.0 06:08:29 10° N 06:11:58 41° WNW 06:15:21 10° SW visible
30 Nov 7.6 16:48:04 10° S 16:51:42 53° W 16:55:22 10° NNW visible
